Wind_Speed
53 54 54 55 55 55 55 55 56 57 57 56 56 57 57 57 57 57 57 57 57 57 58 58 57 56 56 55 55 55 54 53 52 51 49 48 47 47
54 54 54 55 56 56 56 57 58 58 58 58 58 58 58 58 59 59 59 59 59 60 60 60 60 59 59 58 58 57 56 56 54 54 52 52 51 50
54 54 54 55 56 57 57 57 58 59 58 58 59 59 60 60 60 60 60 60 60 61 62 62 62 61 61 60 60 59 58 57 56 55 54 54 53 53
53 54 53 54 55 56 57 56 57 57 58 58 59 59 59 60 61 61 62 62 61 61 63 64 64 64 63 63 62 61 60 59 59 58 57 56 55 55
53 54 54 54 56 56 57 57 57 58 58 58 58 60 60 61 61 61 62 62 62 62 62 64 65 65 65 64 64 63 62 62 62 61 60 59 58 57
54 54 55 55 56 58 58 58 58 58 58 59 59 60 61 62 62 62 63 63 63 63 63 64 65 66 66 66 65 64 64 64 63 63 62 61 60 59
55 55 56 57 58 59 60 60 59 59 59 60 60 61 62 62 62 63 63 63 64 64 63 64 65 66 67 66 66 66 65 66 65 65 64 63 62 61
56 57 57 58 59 59 60 61 61 60 60 61 61 62 62 62 62 63 64 63 63 63 63 63 64 65 67 66 66 66 65 66 66 65 65 65 64 63
56 57 58 58 59 59 60 60 61 60 60 61 61 61 62 62 62 63 63 63 62 62 63 63 64 64 65 66 65 65 65 65 65 65 64 64 64 64
55 55 56 57 57 57 58 58 58 58 58 59 59 59 60 61 61 62 62 63 62 61 62 62 62 62 63 64 65 65 65 64 64 64 64 64 64 65
52 52 53 53 54 55 55 56 56 57 57 57 57 57 58 59 61 61 62 62 61 61 61 61 61 62 62 63 65 65 65 65 64 65 65 64 64 64
49 50 51 52 52 52 53 53 53 54 55 55 56 56 57 58 59 60 61 61 61 61 61 61 62 62 63 64 64 65 65 65 65 65 65 64 64 64
48 49 49 50 50 50 51 51 51 52 53 53 53 54 55 55 56 58 60 61 61 61 61 62 62 62 62 63 64 65 65 66 66 66 66 65 64 63
46 46 47 47 48 48 49 49 50 50 51 51 52 52 53 54 55 57 58 60 61 61 62 63 62 62 62 63 63 65 66 66 67 67 66 66 65 64
44 45 45 46 46 46 47 48 49 49 49 49 50 50 51 52 53 55 57 59 60 61 62 62 63 63 63 63 63 63 64 65 66 67 67 66 66 65
44 45 45 45 46 46 46 47 47 48 48 48 49 49 50 51 52 53 54 55 57 58 60 61 61 62 62 62 63 63 63 64 65 65 66 66 65 65
43 44 44 45 45 46 46 46 46 46 46 46 47 48 49 49 50 50 51 52 53 54 55 57 58 59 59 59 60 60 61 62 64 65 65 65 65 65
41 42 42 43 43 44 45 45 46 46 46 46 46 46 47 47 48 49 49 49 50 51 52 53 54 55 56 58 58 58 59 59 60 62 63 63 63 63
40 40 41 42 42 43 43 44 45 45 46 46 46 46 45 45 46 46 47 47 47 48 48 49 50 51 53 54 54 56 56 57 57 58 59 61 61 61
39 39 40 40 40 41 42 42 43 44 44 44 44 44 44 44 44 44 44 44 45 45 45 45 46 48 49 51 51 52 54 54 55 55 56 57 58 59
38 38 39 39 39 39 40 40 41 41 42 42 42 41 41 41 41 41 42 43 43 43 43 43 43 44 46 47 48 49 50 51 52 53 53 54 55 56
37 38 37 37 37 38 38 38 38 38 39 39 40 39 39 38 38 38 39 39 40 41 41 41 42 42 44 45 45 45 46 47 48 49 49 50 51 52
36 36 36 36 36 36 36 36 37 37 37 37 37 38 38 37 37 36 36 37 38 39 40 40 41 41 41 42 42 42 43 44 44 45 45 46 47 49
Wind_Direction
258 258 258 257 257 257 257 257 257 256 255 255 255 254 254 254 253 253 252 251 250 249 249 249 249 249 250 250 249 250 251 251 252 253 254 254 256 256
259 259 258 258 257 257 258 258 258 258 257 256 256 256 255 255 254 254 253 252 251 250 249 249 249 250 250 251 250 250 250 251 251 253 254 255 256 256
260 259 259 258 257 257 258 258 258 258 258 258 257 255 254 254 254 254 254 253 252 251 250 249 249 249 250 250 250 250 251 251 252 253 254 255 256 256
261 260 259 258 258 258 259 259 259 259 259 258 258 256 255 254 253 253 253 253 253 252 251 250 250 249 249 250 250 250 251 251 251 252 253 254 255 256
262 261 260 260 260 260 260 261 260 260 260 259 259 257 256 254 254 254 253 253 253 253 252 251 250 249 248 249 250 250 251 251 251 252 252 253 254 255
262 262 262 262 261 262 262 262 262 262 261 260 259 258 257 255 254 254 254 253 252 252 252 251 250 249 248 249 249 250 251 250 251 251 252 252 254 254
263 263 262 262 262 262 262 262 262 262 262 261 260 259 258 256 255 255 254 254 253 252 252 251 250 249 248 248 249 250 250 250 251 251 251 251 252 254
265 265 264 263 263 263 262 261 262 263 262 262 261 260 259 257 256 255 254 253 253 252 252 251 251 250 249 248 249 249 249 249 250 251 251 251 252 252
267 266 265 264 264 263 262 262 262 263 263 262 261 261 259 258 256 255 254 253 252 252 252 252 251 251 250 249 248 248 249 249 250 251 251 251 251 252
267 266 265 264 264 264 263 263 263 263 262 262 261 261 259 258 256 255 253 253 253 253 252 252 251 251 250 249 249 248 248 248 249 249 249 250 251 252
267 266 265 264 264 264 264 264 263 262 261 260 260 259 258 258 256 255 254 253 252 253 253 252 251 251 250 250 249 249 248 248 248 249 250 250 250 251
267 266 265 265 265 265 265 264 264 263 262 261 261 260 259 257 256 255 254 253 253 253 253 253 252 252 251 250 250 249 249 248 248 249 250 250 250 251
269 268 267 265 265 265 265 264 264 263 262 262 261 260 259 258 257 255 254 253 253 254 254 254 253 253 252 251 249 248 248 249 249 249 250 250 250 251
270 269 268 266 265 264 264 264 264 264 263 263 262 261 260 259 258 256 255 255 254 254 254 254 254 253 252 251 250 249 249 249 249 249 249 249 250 251
271 270 268 267 266 265 264 264 264 264 263 263 262 261 260 259 258 258 257 256 256 255 255 255 254 253 252 252 250 249 249 248 248 249 249 249 249 250
271 271 269 268 267 266 264 264 264 264 264 263 263 262 261 261 260 259 258 258 257 256 256 255 254 253 252 252 251 250 249 249 248 249 249 249 250 250
272 271 270 268 267 265 264 264 264 263 264 264 263 263 262 262 261 261 259 258 257 257 256 254 253 252 251 251 250 250 249 249 249 249 249 250 250 251
273 272 271 270 268 267 265 265 264 264 263 263 263 262 262 261 261 260 260 259 258 257 256 255 253 252 251 250 250 250 249 249 249 249 249 250 250 250
274 274 273 271 269 268 267 265 264 264 263 263 263 263 262 262 262 260 259 257 257 256 255 254 253 252 250 250 249 249 249 248 249 249 250 250 250 249
276 275 275 273 271 269 267 266 266 264 263 262 262 262 262 262 261 260 258 256 255 255 254 253 253 252 251 250 249 248 248 248 248 248 248 249 249 249
277 277 276 274 272 270 269 267 266 265 264 262 262 261 261 260 259 259 257 255 254 253 253 253 253 252 251 249 248 246 246 247 248 247 247 248 248 249
277 277 276 274 273 271 269 268 267 265 264 263 262 260 259 258 257 258 257 255 254 253 252 252 252 251 250 249 248 247 246 247 247 247 247 247 248 248
278 277 277 275 274 272 271 269 267 266 265 264 262 261 259 258 257 257 256 255 254 253 252 251 250 250 250 249 247 247 246 246 246 247 247 247 248 249
Height
5615 5617 5618 5619 5621 5622 5623 5625 5627 5629 5632 5634 5636 5638 5640 5643 5646 5649 5653 5656 5660 5664 5668 5672 5676 5680 5684 5687 5692 5696 5699 5703 5706 5709 5712 5715 5718 5720
5601 5602 5603 5604 5606 5607 5609 5610 5611 5613 5616 5619 5621 5623 5625 5627 5630 5633 5637 5640 5644 5648 5652 5656 5661 5665 5669 5673 5677 5681 5685 5689 5693 5696 5699 5702 5705 5708
5586 5587 5588 5589 5590 5592 5593 5595 5596 5598 5600 5603 5605 5607 5609 5611 5614 5617 5620 5624 5628 5632 5636 5640 5644 5649 5653 5657 5662 5666 5671 5675 5679 5682 5685 5689 5692 5695
5571 5572 5573 5574 5575 5576 5577 5579 5580 5582 5584 5587 5589 5590 5592 5594 5597 5601 5604 5608 5611 5615 5619 5623 5627 5632 5637 5641 5646 5651 5655 5659 5664 5668 5672 5676 5679 5681
5556 5557 5558 5558 5560 5561 5562 5563 5564 5566 5568 5570 5572 5574 5576 5578 5580 5583 5587 5590 5595 5598 5602 5606 5610 5615 5620 5625 5630 5635 5639 5644 5649 5653 5656 5659 5663 5666
5541 5542 5542 5543 5544 5545 5546 5547 5548 5549 5551 5552 5555 5557 5559 5560 5563 5566 5570 5573 5577 5581 5585 5588 5593 5597 5602 5608 5614 5619 5623 5626 5631 5636 5639 5644 5647 5651
5525 5526 5527 5527 5528 5529 5529 5531 5531 5533 5534 5535 5537 5539 5541 5543 5546 5548 5552 5555 5559 5563 5567 5571 5575 5580 5584 5589 5594 5600 5605 5609 5613 5618 5622 5627 5631 5635
5510 5510 5511 5511 5511 5512 5512 5513 5514 5515 5517 5518 5519 5521 5524 5526 5528 5530 5534 5538 5543 5548 5549 5553 5557 5561 5566 5571 5576 5581 5586 5591 5596 5600 5605 5609 5614 5618
5493 5494 5494 5494 5494 5494 5495 5496 5497 5497 5499 5500 5502 5504 5506 5508 5510 5513 5516 5520 5525 5529 5532 5536 5539 5544 5548 5553 5558 5563 5568 5573 5578 5583 5587 5591 5596 5600
5477 5477 5477 5477 5477 5477 5478 5479 5479 5481 5482 5483 5486 5487 5488 5489 5492 5495 5498 5502 5507 5511 5514 5519 5523 5527 5531 5535 5540 5545 5550 5555 5560 5565 5569 5574 5578 5582
5461 5461 5460 5461 5461 5461 5461 5462 5463 5464 5464 5465 5467 5469 5470 5472 5474 5477 5480 5485 5490 5494 5497 5501 5506 5509 5514 5518 5523 5527 5532 5537 5542 5547 5551 5556 5560 5564
5446 5446 5446 5446 5445 5444 5445 5445 5446 5447 5447 5449 5450 5452 5453 5455 5457 5460 5463 5467 5472 5477 5481 5484 5488 5491 5496 5501 5505 5510 5514 5519 5524 5529 5533 5538 5542 5546
5432 5431 5431 5430 5430 5429 5429 5430 5431 5431 5432 5433 5434 5435 5437 5439 5441 5443 5446 5450 5455 5460 5464 5466 5470 5473 5478 5483 5488 5492 5497 5501 5506 5511 5516 5520 5524 5528
5418 5417 5416 5416 5415 5415 5415 5415 5415 5416 5416 5417 5419 5420 5421 5423 5425 5427 5430 5433 5437 5441 5445 5448 5452 5456 5460 5464 5470 5475 5478 5483 5488 5493 5498 5502 5507 5511
5404 5403 5402 5401 5401 5400 5401 5400 5401 5401 5401 5402 5403 5405 5406 5407 5409 5411 5413 5416 5420 5423 5427 5429 5433 5437 5441 5446 5451 5456 5460 5465 5469 5474 5479 5484 5489 5493
5390 5389 5388 5387 5387 5386 5386 5386 5386 5386 5387 5388 5388 5390 5391 5392 5393 5395 5397 5399 5402 5406 5408 5411 5414 5418 5422 5427 5432 5437 5442 5447 5451 5456 5461 5466 5470 5475
5377 5376 5375 5374 5373 5372 5372 5372 5372 5372 5373 5373 5374 5375 5376 5377 5378 5380 5381 5383 5386 5389 5391 5394 5397 5400 5404 5408 5414 5418 5423 5428 5433 5437 5442 5447 5453 5457
5363 5362 5361 5360 5359 5358 5358 5358 5358 5358 5359 5359 5360 5361 5361 5362 5363 5365 5366 5368 5370 5372 5375 5377 5380 5383 5387 5392 5397 5401 5406 5411 5415 5420 5424 5429 5435 5439
5351 5349 5348 5347 5346 5345 5344 5344 5344 5344 5344 5345 5346 5346 5347 5348 5349 5350 5352 5353 5355 5357 5359 5362 5364 5367 5371 5377 5382 5385 5389 5394 5398 5402 5407 5412 5417 5422
5338 5337 5335 5334 5333 5332 5331 5330 5330 5330 5330 5331 5331 5332 5333 5334 5335 5336 5338 5339 5341 5343 5346 5348 5350 5353 5357 5362 5366 5370 5373 5377 5381 5386 5391 5395 5400 5404
5325 5324 5323 5321 5320 5319 5318 5318 5317 5317 5317 5317 5318 5318 5319 5320 5321 5323 5324 5326 5328 5330 5333 5335 5337 5340 5342 5346 5351 5356 5359 5362 5366 5370 5375 5379 5383 5388
5313 5312 5310 5309 5308 5307 5306 5305 5305 5304 5304 5304 5305 5305 5306 5307 5308 5310 5311 5313 5315 5317 5320 5322 5324 5327 5330 5333 5337 5342 5346 5349 5352 5355 5360 5364 5367 5373
5302 5300 5298 5297 5296 5295 5294 5293 5293 5292 5292 5292 5292 5293 5294 5295 5296 5298 5299 5301 5303 5305 5308 5310 5312 5315 5318 5321 5324 5328 5332 5335 5339 5342 5347 5350 5354 5358